Regional Weather Roundup
Issued by NWS

Home | Current Version | Previous Version | Text Only | Print | Product List | Glossary On
Versions: 1 2 3 4 5 6 7 8 9 10 11 12 13 14 15 16 17 18 19 20 21 22 23 24 25 26 27 28 29 30 31 32 33 34 35 36 37 38 39 40 41 42 43 44 45 46 47 48 49 50
000
ASUS44 KLIX 060408
RWRLA
LOUISIANA WEATHER ROUNDUP
NATIONAL WEATHER SERVICE NEW ORLEANS LA
1100 PM CDT SUN JUL 05 2015

NOTE: "FAIR" INDICATES FEW OR NO CLOUDS BELOW 12,000 FEET WITH NO
      SIGNIFICANT WEATHER AND/OR OBSTRUCTIONS TO VISIBILITY.
      SKY/WX - SKY CONDITION AND SIGNIFICANT WEATHER.
      TMP - AIR TEMPERATURE.    DP   - DEWPOINT TEMPERATURE.
      RH  - RELATIVE HUMIDITY.  PRES - PRESSURE.
      HX  - HEAT INDEX.         WCI  - WIND CHILL INDEX.

*  THESE STATIONS ARE NOT NWS OR FAA STATIONS AND ARE NOT UNDER
   NWS QUALITY CONTROL.

LAZ040-048-061>063-065-066-069-060500-
SOUTHEAST LOUISIANA

CITY           SKY/WX    TMP DP  RH WIND       PRES   REMARKS
N.O. AUDUBON   NOT AVBL
N.O. INTL ARPT CLOUDY    73  67  81 S6        30.11R
N.O. LAKEFRONT CLOUDY    76  67  73 S9        30.11R
N.O. DOWNTOWN* FAIR      75  66  73 SE3       30.12R
RESERVE*       NOT AVBL
SLIDELL        CLOUDY    71  70  96 SE3       30.09R
BATON ROUGE    PTCLDY    70  68  93 S6        30.10F
BOOTHVILLE     CLOUDY    76  70  82 E8        30.13F
BELLE CHASSE   CLOUDY    71  71 100 CALM      30.11R
BOGALUSA*        N/A     71  67  88 CALM      30.09F
GALLIANO*      MOCLDY    77  69  78 CALM      30.12S
NEW ROADS*     FAIR     N/A N/A N/A S3        30.09F
GONZALES*      FAIR      70  70 100 CALM      30.10F
HAMMOND*       CLOUDY    70  66  88 CALM      30.10F
HOUMA*         PTCLDY    71  70  95 CALM      30.12R
PORT FOURCHON* CLEAR     79  70  73 E13       30.12F

$$

LAZ041-044-053-054-060500-
SOUTHWEST LOUISIANA

CITY           SKY/WX    TMP DP  RH WIND       PRES   REMARKS
LAKE CHARLES   PTCLDY    79  76  90 SE5       30.08S
LAFAYETTE      PTCLDY    72  69  90 CALM      30.11F
PATTERSON      PTCLDY    73  68  83 CALM      30.13S
SALT POINT       N/A     75  71  87 E5        30.10F
NEW IBERIA     NOT AVBL
CHENAULT AIRPK MOCLDY    76  74  93 NE5       30.10S

$$

LAZ027-028-060500-
CENTRAL LOUISIANA

CITY           SKY/WX    TMP DP  RH WIND       PRES   REMARKS
FORT POLK      MOCLDY    72  68  86 SE7       30.08F
ALEXANDRIA INT MOCLDY    71  69  93 S6        30.05F
ALEXANDRIA     MOCLDY    72  68  87 SW5       30.06F

$$

LAZ001-002-060500-
NORTHWEST LOUISIANA

CITY           SKY/WX    TMP DP  RH WIND       PRES   REMARKS
SHREVEPORT     MOCLDY    74  70  87 S10       30.03F
BARKSDALE AFB  NOT AVBL
DTN SHREVEPORT MOCLDY    74  69  85 S12       30.03S

$$

LAZ014-016-060500-
NORTHEAST LOUISIANA

CITY           SKY/WX    TMP DP  RH WIND       PRES   REMARKS
MONROE         MOCLDY    69  68  96 E3        30.05F
TALLULAH       PTCLDY    70  67  90 CALM      30.06R

$$




USA.gov is the U.S. government's official web portal to all federal, state and local government web resources and services.